Left ArrowRight Arrow

Hourly Observations for April 1, 2022

Temp ( °F °C ) Dew Point ( °F °C ) Humidity (%) Winds ( mph kmh ) Pressure ( in mb ) Visibility ( mi km ) Precip ( " mm )
12:37 am 00:37 Cloudy 49 9.4 48 8.9 97 97 W 6 9 29.45 997 8 13 0.00 0.00
12:51 am 00:51 Cloudy with Heavy Rain 50 10 49 9.4 96 96 S 6 9 29.44 997 3 4 0.03 0.76
12:56 am 00:56 Cloudy with Heavy Rain 50 10 49 9.4 96 96 S 5 7 29.43 997 3 4 0.04 1.02
1:00 am 01:00 Cloudy with Light Rain 51 10.6 50 10 96 96 SSW 6 9 29.42 996 3 5 0.05 1.27
1:51 am 01:51 Mostly Cloudy 51 10.6 51 10.6 100 100 W 5 7 29.42 996 10 16 0.06 1.52
1:58 am 01:58 Mostly Cloudy 49 9.4 48 8.9 97 97 W 9 15 29.42 996 9 14 0.00 0.00
2:07 am 02:07 Cloudy 48 8.9 47 8.3 96 96 WNW 9 15 29.43 997 10 16 0.00 0.00
2:51 am 02:51 Mostly Cloudy 47 8.3 46 7.8 97 97 W 5 7 29.43 997 10 16 0.00 0.00
3:14 am 03:14 Mostly Cloudy 46 7.8 45 7.2 96 96 WNW 5 7 29.43 997 10 16 0.00 0.00
3:51 am 03:51 Cloudy 45 7.2 45 7.2 100 100 W 5 7 29.43 997 10 16 0.00 0.00
4:11 am 04:11 Cloudy 45 7.2 44 6.7 97 97 N 3 6 29.42 996 10 16 0.00 0.00
4:31 am 04:31 Cloudy 45 7.2 44 6.7 97 97 Calm 29.43 997 10 16 0.00 0.00
4:51 am 04:51 Cloudy 45 7.2 45 7.2 100 100 Calm 29.42 996 10 16 0.00 0.00
5:24 am 05:24 Cloudy with Mist and Fog 46 7.8 46 7.8 100 100 NW 3 6 29.42 996 1 2 0.00 0.00
5:32 am 05:32 Mostly Cloudy with Fog 46 7.8 46 7.8 100 100 WNW 3 6 29.41 996 1 1 0.00 0.00
5:39 am 05:39 Mostly Cloudy with Fog 46 7.8 46 7.8 100 100 W 3 6 29.42 996 0 0 0.00 0.00
5:46 am 05:46 Cloudy with Fog 46 8 46 8 100 100 Calm 29.42 996 1 1 0.00 0.00
5:51 am 05:51 Cloudy with Fog 46 7.8 46 7.8 100 100 Calm 29.41 996 1 1 0.00 0.00
6:06 am 06:06 Cloudy with Mist and Fog 45 7.2 45 7.2 100 100 NW 7 11 29.42 996 2 2 0.00 0.00
6:45 am 06:45 Cloudy with Mist and Fog 45 7 45 7 100 100 SSW 3 6 29.42 996 2 3 0.00 0.00
6:51 am 06:51 Cloudy with Mist and Fog 46 7.8 45 7.2 96 96 Calm 29.41 996 4 6 0.00 0.00
7:45 am 07:45 Cloudy with Rain 46 8 45 7 93 93 NW 6 9 29.44 997 3 5 0.10 2.54
7:51 am 07:51 Cloudy with Light Rain 46 7.8 45 7.2 96 96 NW 5 7 29.43 997 3 5 0.10 2.54
8:51 am 08:51 Cloudy with Light Rain 46 7.8 46 7.8 100 100 N 7 11 29.40 996 4 6 0.10 2.54
9:51 am 09:51 Cloudy with Light Rain 47 8.3 46 7.8 97 97 W 13 20 29.44 997 9 14 0.04 1.02
10:51 am 10:51 Cloudy with Light Rain 50 10 48 8.9 93 93 NW 6 9 29.44 997 10 16 0.03 0.76
11:51 am 11:51 Cloudy with Light Rain 53 11.7 50 10 89 89 NNE 7 11 29.38 995 10 16 0.02 0.51
12:09 pm 12:09 Cloudy 54 12.2 50 10 87 87 N 7 11 29.38 995 10 16 0.00 0.00
12:34 pm 12:34 Cloudy with Light Rain 53 11.7 48 8.9 83 83 ENE 5 7 29.38 995 5 8 0.01 0.25
12:51 pm 12:51 Cloudy with Light Rain 53 11.7 48 8.9 83 83 ENE 6 9 29.37 995 8 13 0.03 0.76
1:20 pm 13:20 Cloudy 52 11.1 50 10 93 93 SE 5 7 29.38 995 10 16 0.00 0.00
1:51 pm 13:51 Cloudy 53 11.7 49 9.4 86 86 Calm 29.38 995 10 16 0.00 0.00
2:51 pm 14:51 Cloudy 53 11.7 47 8.3 80 80 WSW 12 19 29.38 995 10 16 0.00 0.00
2:58 pm 14:58 Cloudy 52 11.1 44 6.7 75 75 W 17 28 29.38 995 10 16 0.00 0.00
3:09 pm 15:09 Cloudy with Light Rain 51 10.6 42 5.6 71 71 WSW 13 20 29.38 995 10 16 0.00 0.00
3:46 pm 15:46 Cloudy 52 11 41 5 67 67 W 12 19 29.38 995 10 16 0.00 0.00
3:51 pm 15:51 Cloudy 51 10.6 41 5 69 69 W 13 20 29.38 995 10 16 0.00 0.00
4:51 pm 16:51 Mostly Cloudy 52 11.1 40 4.4 64 64 NW 21 33 29.40 996 10 16 0.00 0.00
5:02 pm 17:02 Mostly Cloudy with Light Rain 49 9.4 42 5.6 77 77 NNW 16 26 29.40 996 10 16 0.00 0.00
5:51 pm 17:51 Mostly Cloudy 48 8.9 40 4.4 74 74 NNW 9 15 29.42 996 10 16 0.00 0.00
6:51 pm 18:51 Partly Cloudy 46 7.8 37 2.8 71 71 WNW 7 11 29.44 997 10 16 0.00 0.00
7:51 pm 19:51 Mostly Cloudy 46 7.8 34 1.1 63 63 W 10 17 29.47 998 10 16 0.00 0.00
8:51 pm 20:51 Partly Cloudy 44 6.7 32 0 63 63 W 16 26 29.52 1000 10 16 0.00 0.00
9:51 pm 21:51 Mostly Cloudy 42 5.6 30 -1.1 62 62 W 10 17 29.55 1001 10 16 0.00 0.00
10:51 pm 22:51 Partly Cloudy 39 3.9 32 0 76 76 WNW 10 17 29.57 1001 10 16 0.00 0.00
11:51 pm 23:51 Partly Cloudy 39 3.9 31 -0.6 73 73 W 9 15 29.59 1002 10 16 0.00 0.00

Powered by Vaisala Xweather